HK6RM-20 Weather Reports


time (UTC)temp
C
wind
direction
speed
KPH
gust
KPH
rain 1hr
cm
rain 24hr
cm
rain mn
cm
humidity
%
barometer
mb
20260507124252 20 276 1.6 1.6 0.00 0.00 0.00 92 1015.0
20260507122950 20 344 0.0 1.6 0.00 0.00 0.00 92 1015.0
20260507121650 21 344 0.0 1.6 0.00 0.00 0.00 92 1015.0
20260507120349 21 344 0.0 1.6 0.00 0.00 0.00 92 1015.0
20260507115048 22 357 0.0 0.0 0.00 0.00 0.00 92 1015.0
20260507113748 18 357 0.0 0.0 0.00 0.00 0.00 94 1015.0
20260507112447 19 75 0.0 1.6 0.00 0.00 0.00 94 1016.0
20260507111145 20 75 0.0 1.6 0.00 0.00 0.00 94 1016.0
20260507105844 20 75 0.0 1.6 0.00 0.00 0.00 94 1015.0
20260507104544 17 96 1.6 1.6 0.00 0.00 0.00 92 1015.0
20260507103243 17 96 1.6 1.6 0.00 0.00 0.00 92 1015.0
20260507101942 18 96 1.6 1.6 0.00 0.00 0.00 92 1015.0
20260507100641 18 96 1.6 1.6 0.00 0.00 0.00 92 1015.0
20260507095340 19 96 1.6 1.6 0.00 0.00 0.00 92 1015.0
20260507094038 20 96 1.6 1.6 0.00 0.00 0.00 92 1015.0
20260507092738 20 96 1.6 1.6 0.00 0.00 0.00 92 1015.0
20260507091437 21 96 1.6 3.2 0.00 0.00 0.00 92 1015.0
20260507090137 17 108 1.6 1.6 0.00 0.00 0.00 91 1015.0
20260507084834 17 108 1.6 1.6 0.00 0.00 0.00 91 1014.0
20260507083534 18 108 1.6 1.6 0.00 0.00 0.00 91 1014.0
20260507082233 18 108 1.6 1.6 0.00 0.00 0.00 91 1015.0
20260507080933 19 108 1.6 1.6 0.00 0.00 0.00 91 1015.0
20260507075631 20 108 1.6 1.6 0.00 0.00 0.00 91 1014.0
20260507074330 20 108 1.6 1.6 0.00 0.00 0.00 91 1014.0
20260507073028 21 108 1.6 1.6 0.00 0.00 0.00 91 1014.0
20260507071727 21 108 1.6 1.6 0.00 0.00 0.00 91 1015.0
20260507070424 22 108 1.6 1.6 0.00 0.00 0.00 91 1015.0
20260507065123 22 108 1.6 1.6 0.00 0.00 0.00 91 1015.0
20260507063823 23 108 1.6 3.2 0.00 0.00 0.00 91 1015.0
20260507062522 17 78 1.6 1.6 0.00 0.00 0.00 83 1016.0
20260507061221 18 78 1.6 1.6 0.00 0.00 0.00 83 1015.0
20260507055921 18 78 1.6 1.6 0.00 0.00 0.00 83 1015.0
20260507054620 19 78 1.6 1.6 0.00 0.00 0.00 83 1015.0
20260507053320 20 78 1.6 1.6 0.00 0.00 0.00 83 1015.0
20260507052019 20 78 1.6 1.6 0.00 0.00 0.00 83 1016.0
20260507050718 21 78 1.6 1.6 0.00 0.00 0.00 83 1016.0
20260507045418 21 78 1.6 1.6 0.00 0.00 0.00 83 1016.0
20260507044117 22 78 1.6 1.6 0.00 0.00 0.00 83 1016.0
20260507042816 22 78 1.6 3.2 0.00 0.00 0.00 83 1017.0
20260507041516 18 99 1.6 4.8 0.00 0.00 0.00 79 1017.0
20260507040215 18 99 1.6 4.8 0.00 0.00 0.00 79 1017.0
20260507034914 19 99 1.6 4.8 0.00 0.00 0.00 79 1016.0
20260507033614 20 99 1.6 4.8 0.00 0.00 0.00 79 1016.0
20260507032313 20 99 1.6 4.8 0.00 0.00 0.00 79 1016.0
20260507031011 21 99 1.6 4.8 0.00 0.00 0.00 79 1016.0
20260507025710 21 99 1.6 4.8 0.00 0.00 0.00 79 1015.0
20260507024410 22 99 1.6 4.8 0.00 0.00 0.00 79 1015.0
20260507023108 22 99 1.6 4.8 0.00 0.00 0.00 79 1015.0
20260507021806 23 99 1.6 4.8 0.00 0.00 0.00 79 1016.0
20260507020506 23 99 1.6 4.8 0.00 0.00 0.00 79 1016.0
20260507015205 18 102 1.6 6.4 0.00 0.00 0.00 67 1015.0
20260507013905 19 102 1.6 6.4 0.00 0.00 0.00 67 1014.0
20260507012604 20 102 1.6 6.4 0.00 0.00 0.00 67 1015.0
20260507011300 20 102 1.6 6.4 0.00 0.00 0.00 67 1015.0
20260507005959 21 102 1.6 6.4 0.00 0.00 0.00 67 1014.0
20260507004656 21 102 1.6 6.4 0.00 0.00 0.00 67 1014.0
20260507003356 22 102 1.6 6.4 0.00 0.00 0.00 67 1013.0
20260507002055 22 102 1.6 6.4 0.00 0.00 0.00 67 1012.0
20260507000754 23 102 1.6 6.4 0.00 0.00 0.00 67 1012.0
20260506235451 23 102 1.6 6.4 0.00 0.00 0.00 67 1011.0
20260506234150 24 102 1.6 6.4 0.00 0.00 0.00 67 1011.0
20260506232849 25 102 1.6 6.4 0.00 0.00 0.00 67 1010.0
20260506231549 25 102 1.6 6.4 0.00 0.00 0.00 67 1010.0
20260506230247 26 102 1.6 6.4 0.00 0.00 0.00 67 1010.0
20260506224946 26 102 1.6 6.4 0.00 0.00 0.00 67 1009.0
20260506223644 27 102 1.6 6.4 0.00 0.00 0.00 67 1009.0
20260506222344 27 358 0.0 3.2 0.00 0.00 0.00 58 1008.0
20260506221042 27 358 0.0 3.2 0.00 0.00 0.00 58 1007.0
20260506215742 28 358 0.0 3.2 0.00 0.00 0.00 58 1007.0
20260506214441 28 358 0.0 3.2 0.00 0.00 0.00 58 1007.0
20260506213141 29 358 0.0 3.2 0.00 0.00 0.00 58 1007.0
20260506211840 30 343 3.2 3.2 0.00 0.00 0.00 53 1006.0
20260506210540 30 343 3.2 3.2 0.00 0.00 0.00 53 1006.0
20260506205238 30 343 3.2 3.2 0.00 0.00 0.00 50 1006.0
20260506203938 30 343 3.2 3.2 0.00 0.00 0.00 51 1006.0
20260506202637 30 338 4.8 3.2 0.00 0.00 0.00 56 1007.0
20260506201337 30 338 4.8 3.2 0.00 0.00 0.00 55 1007.0
20260506200036 30 338 4.8 3.2 0.00 0.00 0.00 53 1007.0
20260506194736 30 338 4.8 3.2 0.00 0.00 0.00 53 1007.0
20260506193435 30 338 4.8 3.2 0.00 0.00 0.00 53 1007.0
20260506192135 30 326 4.8 4.8 0.00 0.00 0.00 55 1008.0
20260506190834 30 326 4.8 4.8 0.00 0.00 0.00 53 1008.0
20260506185534 30 326 4.8 4.8 0.00 0.00 0.00 51 1008.0
20260506184231 30 326 4.8 4.8 0.00 0.00 0.00 53 1008.0
20260506182928 30 310 4.8 4.8 0.00 0.00 0.00 56 1009.0
20260506181628 30 310 4.8 4.8 0.00 0.00 0.00 56 1009.0
20260506180328 30 310 4.8 4.8 0.00 0.00 0.00 54 1009.0
20260506175027 30 310 4.8 4.8 0.00 0.00 0.00 54 1009.0
20260506173727 30 320 4.8 4.8 0.00 0.00 0.00 56 1009.0
20260506172426 29 302 4.8 6.4 0.00 0.00 0.00 61 1010.0
20260506171124 29 302 4.8 6.4 0.00 0.00 0.00 58 1010.0
20260506165824 29 302 4.8 6.4 0.00 0.00 0.00 55 1010.0
20260506164519 30 302 4.8 6.4 0.00 0.00 0.00 58 1011.0
20260506163218 30 302 4.8 6.4 0.00 0.00 0.00 58 1011.0
20260506161917 28 295 4.8 6.4 0.00 0.00 0.00 66 1012.0
20260506160616 28 295 4.8 6.4 0.00 0.00 0.00 66 1012.0
20260506155316 28 295 4.8 6.4 0.00 0.00 0.00 64 1012.0
20260506154015 27 305 1.6 4.8 0.00 0.00 0.00 72 1013.0
20260506152715 27 305 3.2 4.8 0.00 0.00 0.00 72 1014.0
20260506151413 26 305 1.6 4.8 0.00 0.00 0.00 71 1014.0
20260506150112 27 305 3.2 4.8 0.00 0.00 0.00 71 1014.0
20260506144810 26 305 1.6 4.8 0.00 0.00 0.00 74 1014.0
20260506143508 27 305 3.2 4.8 0.00 0.00 0.00 74 1014.0
20260506142208 24 289 1.6 1.6 0.00 0.00 0.00 86 1016.0
20260506140907 25 289 1.6 1.6 0.00 0.00 0.00 86 1016.0
20260506135607 24 289 1.6 1.6 0.00 0.00 0.00 81 1015.0
20260506134306 25 289 1.6 1.6 0.00 0.00 0.00 81 1015.0
20260506133006 22 260 1.6 1.6 0.00 0.00 0.00 90 1015.0
20260506131705 22 260 1.6 1.6 0.00 0.00 0.00 90 1016.0
20260506130405 23 260 1.6 1.6 0.00 0.00 0.00 90 1016.0